x

9449880 - Friday Harbor, Wa (frdw1) Weather Station

2:36 - Wed 29th Mar 2017 All times are PDT. -7 hours from GMT.

  • Wind
    11mph, 18mph gusts
  • Sea Temp 47°f
  • Aire Temp 46°f
  • Sea Pressure 1015.8mb
  • 9449880 - Friday Harbor, Wa
  • 9449880 - Friday Harbor, Wa

More Historic Weather Station data

Upgrade to MSW Pro to gain access to the past 30 days of data for over 8000 Wavebouys and Weather Stations around the globe.

Join Pro

Comparision Forecast

View Surf forecast
   
mié 03/29 2:36 11 18 mph 1015.8mb 47f 46f
2:30 11 22 mph 1015.8mb 47f 46f
2:24 11 18 mph 1015.8mb 47f 46f
2:18 13 16 mph 1016mb 47f 46f
2:12 11 17 mph 1016.1mb 47f 46f
2:06 14 18 mph 1016.3mb 47f 46f
2:00 10 20 mph 1016.3mb 47f 46f
1:36 11 18 mph 1016.8mb 47f 46f
1:30 14 17 mph 1016.9mb 47f 47f
1:24 13 17 mph 1017mb 47f 47f
1:18 10 15 mph 1017.1mb 47f 47f
1:12 11 16 mph 1017.2mb 47f 47f
1:06 10 15 mph 1017.4mb 47f 47f
1:00 10 18 mph 1017.3mb 47f 47f
12:36 9 17 mph 1017.7mb 47f 47f
12:30 9 18 mph 1017.8mb 47f 47f
12:24 9 14 mph 1018mb 47f 47f
12:18 10 14 mph 1017.9mb 47f 47f
12:12 7 11 mph 1018.1mb 47f 47f
12:06 8 10 mph 1018.2mb 47f 47f
12:00 6 9 mph 1018.3mb 47f 47f
mar 03/28 11:36 7 10 mph 1018.4mb 47f 47f
11:30 8 11 mph 1018.5mb 47f 48f
11:24 6 9 mph 1018.5mb 47f 47f
11:18 8 10 mph 1018.6mb 47f 48f
11:12 8 10 mph 1018.6mb 47f 47f
11:06 8 11 mph 1018.7mb 47f 48f
11:00 8 9 mph 1018.7mb 47f 48f
10:36 8 11 mph 1019.1mb 47f 48f
10:30 8 11 mph 1019.2mb 47f 48f
10:24 8 13 mph 1019.3mb 47f 48f
10:18 7 13 mph 1019.4mb 47f 48f
10:12 7 10 mph 1019.5mb 47f 48f
10:06 8 11 mph 1019.6mb 47f 48f
10:00 9 13 mph 1019.7mb 47f 48f
9:36 9 11 mph 1019.8mb 47f 48f
9:30 9 13 mph 1019.8mb 47f 48f
9:24 8 11 mph 1019.8mb 47f 48f
9:18 7 11 mph 1019.8mb 47f 48f
9:12 7 11 mph 1019.8mb 47f 48f
9:06 7 10 mph 1019.8mb 47f 48f
9:00 7 13 mph 1019.9mb 47f 48f
8:36 6 11 mph 1019.7mb 47f 49f
8:30 7 10 mph 1019.6mb 47f 49f
8:24 6 10 mph 1019.7mb 47f 49f
8:18 7 10 mph 1019.6mb 47f 49f
8:12 7 10 mph 1019.6mb 47f 49f
8:06 7 10 mph 1019.6mb 47f 49f
8:00 7 10 mph 1019.6mb 47f 49f
7:36 7 11 mph 1019.8mb 47f 49f
7:30 6 9 mph 1019.8mb 47f 49f
7:24 6 11 mph 1019.7mb 47f 49f
7:18 6 10 mph 1019.7mb 47f 49f
7:12 6 14 mph 1019.8mb 47f 49f
7:06 8 14 mph 1019.8mb 47f 49f
7:00 9 10 mph 1019.8mb 47f 49f
6:36 7 11 mph 1019.8mb 47f 49f
6:30 7 11 mph 1019.9mb 47f 49f
6:24 8 11 mph 1019.8mb 47f 49f
6:18 8 15 mph 1019.7mb 47f 49f
6:12 8 13 mph 1019.8mb 47f 49f
6:06 8 11 mph 1019.8mb 47f 49f
6:00 9 13 mph 1020mb 47f 49f
5:36 7 13 mph 1020mb 47f 49f
5:30 7 10 mph 1020mb 47f 50f
5:24 7 13 mph 1019.8mb 47f 50f
5:18 8 11 mph 1020mb 47f 50f
5:12 7 11 mph 1019.9mb 47f 50f
5:06 8 13 mph 1019.9mb 47f 50f
5:00 9 15 mph 1019.9mb 47f 50f
4:36  -  mph 1020mb 47f -
4:30  -  mph 1020.1mb 47f -
4:24  -  mph 1020.1mb 47f -
4:18  -  mph 1020.1mb 47f -
4:12  -  mph 1020.1mb 47f -
4:06  -  mph 1020.1mb 47f -
4:00  -  mph 1020.1mb 47f -
3:36  -  mph 1020.5mb 47f -
3:30  -  mph 1020.5mb 47f -
3:24  -  mph 1020.6mb 47f -
3:18  -  mph 1020.5mb 47f -
3:12  -  mph 1020.6mb 47f -
3:06  -  mph 1020.7mb 47f -
3:00  -  mph 1020.7mb 47f -
2:36 11 14 mph 1020.7mb 47f 49f
2:30 8 15 mph 1020.6mb 47f 49f
2:24 14 20 mph 1020.6mb 47f 49f
2:18 9 13 mph 1020.6mb 47f 49f
2:12 11 18 mph 1020.7mb 47f 49f
2:06 10 16 mph 1020.6mb 47f 49f
2:00 9 13 mph 1020.6mb 47f 49f
1:36 7 10 mph 1020.7mb 47f 50f
1:30 6 9 mph 1020.6mb 47f 50f
1:24 6 10 mph 1020.5mb 47f 49f
1:18 6 11 mph 1020.5mb 47f 49f
1:12 6 10 mph 1020.4mb 47f 49f
1:06 8 14 mph 1020.4mb 47f 49f
1:00 9 11 mph 1020.3mb 47f 49f
12:36 6 10 mph 1020.8mb 47f 49f
12:30 5 7 mph 1020.8mb 47f 48f
12:24 5 7 mph 1020.9mb 47f 48f
12:18 5 9 mph 1021mb 47f 48f
12:12 8 15 mph 1021mb 47f 48f
12:06 7 10 mph 1021mb 47f 48f
12:00 7 11 mph 1021.1mb 47f 48f
11:36 8 14 mph 1020.7mb 47f 47f
11:30 8 17 mph 1020.5mb 47f 47f
11:24 8 14 mph 1020.5mb 47f 47f
11:18 8 13 mph 1020.5mb 47f 47f
11:12 8 16 mph 1020.5mb 47f 47f
11:06 7 14 mph 1020.4mb 47f 47f
11:00 9 16 mph 1020.7mb 47f 47f
10:36 11 22 mph 1020.7mb 47f 46f
10:30 13 17 mph 1020.6mb 47f 46f
10:24 13 17 mph 1020.5mb 47f 46f
10:18 13 20 mph 1020.5mb 47f 46f
10:12 13 17 mph 1020.5mb 47f 46f
10:06 13 18 mph 1020.5mb 47f 46f
10:00 9 17 mph 1020.4mb 47f 46f
9:36 10 16 mph 1020.3mb 47f 46f
9:30 11 17 mph 1020.4mb 47f 46f
9:24 11 16 mph 1020.5mb 47f 46f
9:18 11 17 mph 1020.6mb 47f 46f
9:12 11 18 mph 1020.6mb 47f 46f
9:06 10 17 mph 1020.5mb 47f 46f
9:00 11 15 mph 1020.5mb 47f 46f
8:36 9 16 mph 1020.4mb 47f 46f
8:30 8 15 mph 1020.3mb 47f 45f
8:24 10 21 mph 1020.3mb 47f 46f
8:18 13 18 mph 1020.4mb 47f 46f
8:12 11 20 mph 1020.4mb 47f 46f
8:06 13 20 mph 1020.4mb 47f 46f
8:00 10 21 mph 1020.4mb 47f 46f
7:36 10 16 mph 1020.4mb 47f 46f
7:30 11 18 mph - - 46f
7:24 11 17 mph 1020.2mb 47f 46f
7:18 10 15 mph 1020.1mb 47f 46f
7:12 9 14 mph 1020.2mb 47f 46f
7:06 9 15 mph - - 46f
7:00 10 14 mph - - 46f
6:36 10 17 mph 1020.3mb 47f 46f
6:30 10 16 mph 1020.4mb 47f 46f
6:24 10 15 mph 1020.5mb 47f 46f
6:18 10 20 mph 1020.4mb 47f 46f
6:12 9 15 mph 1020.4mb 47f 46f
6:06 10 17 mph 1020.6mb 47f 46f
6:00 13 18 mph 1020.9mb 47f 46f
5:36 14 21 mph 1020.6mb 47f 46f
5:30 10 18 mph 1020.6mb 47f 46f
5:24 11 21 mph 1020.4mb 47f 46f
5:18 11 17 mph 1020.5mb 47f 46f
5:12 11 18 mph 1020.4mb 47f 46f
5:06 13 18 mph 1020.4mb 47f 46f
5:00 8 13 mph 1020.6mb 47f 46f
4:36 9 13 mph 1020.8mb 47f 46f
4:30 7 13 mph 1020.8mb 47f 46f
4:24 10 15 mph 1020.8mb 47f 46f
4:18 10 17 mph 1020.9mb 47f 46f
4:12 9 14 mph 1021mb 47f 46f
4:06 10 14 mph 1021mb 47f 46f
4:00 8 16 mph 1021.1mb 47f 46f
3:54 9 16 mph 1021mb 47f 46f
3:48 9 17 mph 1021mb 47f 46f
3:36 10 17 mph 1020.8mb 47f 46f
3:30 10 15 mph 1020.9mb 47f 46f
3:24 10 15 mph 1021mb 47f 46f
3:18 10 16 mph 1021.1mb 47f 46f
3:12 9 14 mph 1021.1mb 47f 46f
3:06 9 14 mph 1021mb 47f 46f
3:00 8 13 mph 1021mb 47f 46f
2:54 7 13 mph 1021mb 47f 46f
2:48 9 14 mph 1020.9mb 47f 46f
2:36 9 15 mph 1021.1mb 47f 46f
2:30 9 14 mph 1021.2mb 47f 46f
2:24 8 13 mph 1021.5mb 47f 46f
2:18 9 13 mph 1021.5mb 47f 46f
2:12 10 13 mph 1021.5mb 47f 46f
2:06 9 15 mph 1021.6mb 47f 46f
2:00 7 11 mph 1021.7mb 47f 46f
1:54 7 11 mph 1021.7mb 47f 46f
1:48 7 9 mph 1021.7mb 47f 46f
1:36 3 6 mph 1021.9mb 47f 46f
1:30 3 5 mph 1022mb 47f 46f
1:24 3 5 mph 1022mb 47f 46f
1:18 3 5 mph 1022.2mb 47f 46f
1:12 5 6 mph 1022mb 47f 46f
1:06 3 5 mph 1022mb 47f 46f
1:00 3 5 mph 1022mb 47f 46f
12:54 5 6 mph 1022.1mb 47f 46f
12:48 5 7 mph 1022.1mb 47f 46f
12:36 6
mph
1022.2mb 47f 46f
12:30 5 6 mph 1022.2mb 47f 46f
12:24 5 6 mph 1022.2mb 47f 46f
12:18 3 6 mph 1022.3mb 47f 46f
12:12 5 6 mph 1022.1mb 47f 46f
12:06 6
mph
1022.1mb 47f 46f
12:00 5 6 mph 1022.1mb 47f 46f
lun 03/27 11:54 6 7 mph 1022.2mb 47f 46f
11:48 5 9 mph 1022.2mb 47f 46f
11:36 5 6 mph 1022.4mb 47f 46f
11:30 5 6 mph 1022.5mb 47f 46f
11:24 5 6 mph 1022.6mb 47f 46f
11:18 3 5 mph 1022.6mb 47f 46f
11:12 3 5 mph 1022.6mb 47f 46f
11:06 2 3 mph 1022.6mb 47f 46f
11:00 2 3 mph 1022.6mb 47f 46f
10:54  -  1 mph 1022.5mb 47f 46f
10:48  -  mph 1022.4mb 47f 46f
10:36  -  1 mph 1022.3mb 47f 46f
10:30 1 2 mph 1022.2mb 47f 46f
10:24 1 2 mph 1022.3mb 47f 46f
10:18  -  2 mph 1022.2mb 47f 46f
10:12 2
mph
1022.1mb 47f 46f
10:06 2
mph
1022.1mb 47f 46f
10:00 1 2 mph 1022.2mb 47f 46f
9:54  -  1 mph 1022.2mb 47f 46f
9:48  -  1 mph 1022.1mb 47f 46f
9:36  -  2 mph 1022mb 47f 46f
9:30 1 2 mph 1021.9mb 47f 46f
9:24 1 2 mph 1021.9mb 47f 46f
9:18  -  2 mph 1021.8mb 47f 47f
9:12 2 3 mph 1021.7mb 47f 47f
9:06 2
mph
1021.6mb 47f 47f
9:00 1 2 mph 1021.7mb 47f 47f
8:54 1 2 mph 1021.7mb 47f 47f
8:48 2
mph
1021.7mb 47f 47f
8:36 1 2 mph 1021.6mb 47f 47f
8:30  -  2 mph 1021.5mb 47f 47f
8:24  -  1 mph 1021.5mb 47f 47f
8:18  -  1 mph 1021.4mb 47f 47f
8:12  -  1 mph 1021.4mb 47f 47f
8:06  -  1 mph 1021.3mb 47f 47f
8:00  -  1 mph 1021.2mb 47f 47f
7:36 3 6 mph 1020.9mb 47f 48f
7:30 5 6 mph 1020.9mb 47f 48f
7:24 3 5 mph 1020.9mb 47f 49f
7:18 3 5 mph 1020.9mb 47f 49f
7:12  -  2 mph 1020.8mb 47f 49f
7:06 1 6 mph 1020.9mb 47f 49f
7:00 5 7 mph 1020.9mb 47f 49f
6:54 3 8 mph 1020.8mb 47f 49f
6:48 6 10 mph 1020.8mb 47f 49f
6:36 8 11 mph 1020.7mb 47f 49f
6:30 6 8 mph 1020.5mb 47f 49f
6:24 7 9 mph 1020.4mb 47f 50f
6:18 8 10 mph 1020.3mb 47f 50f
6:12 8 10 mph 1020.5mb 47f 50f
6:06 10 13 mph 1020.4mb 47f 50f
6:00 8 10 mph 1020.5mb 47f 50f
5:54 5 9 mph 1020.3mb 47f 50f
5:48 5 9 mph 1020.3mb 47f 50f
5:36 6 10 mph 1020.3mb 47f 50f
5:30 5 10 mph 1020.4mb 47f 51f
5:24 6 11 mph 1020.2mb 47f 51f
5:18 8 14 mph 1020.2mb 47f 51f
5:12 5 9 mph 1020.3mb 47f 51f
5:06 5 8 mph 1020.3mb 47f 51f
5:00 8 14 mph 1020.2mb 47f 50f
4:54 9 14 mph 1020.1mb 47f 50f
4:48 10 13 mph 1020.1mb 47f 50f
4:36 9 13 mph 1020.2mb 47f 50f
4:30 7 13 mph 1020.2mb 47f 51f
4:24 7 10 mph 1020.2mb 47f 51f
4:18 7 11 mph 1020.2mb 47f 51f
4:12 8 10 mph 1020.3mb 47f 50f
4:06 10 11 mph 1020.3mb 47f 50f
4:00 9 13 mph 1020.3mb 47f 51f
3:54 9 13 mph 1020.3mb 47f 51f
3:48 7 9 mph 1020.1mb 47f 51f
3:36 3 6 mph 1020.2mb 47f 51f
3:30 5 8 mph 1020.2mb 47f 51f
3:24 5 9 mph 1020.2mb 47f 51f
3:18 5 7 mph 1020.1mb 47f 50f
3:12 6 9 mph 1020.1mb 47f 50f
3:06 6 9 mph 1020.2mb 47f 50f
3:00 6 8 mph 1020.1mb 47f 50f
2:54 5 7 mph 1020.1mb 47f 50f
2:48 6 8 mph 1020.1mb 47f 49f
2:36 6 10 mph 1020mb 47f 49f
2:30 6 8 mph 1019.9mb 47f 49f
2:24 5 8 mph 1019.9mb 47f 49f
2:18 6 8 mph 1019.8mb 47f 49f
2:12 7 9 mph 1019.8mb 47f 49f
2:06 3 7 mph 1019.6mb 47f 49f
2:00 5 6 mph 1019.6mb 47f 49f
1:54 6 8 mph 1019.5mb 47f 49f
1:48 5 8 mph 1019.4mb 47f 49f
1:36 8 11 mph 1019.2mb 47f 49f
1:30 6 9 mph 1019.1mb 47f 49f
1:24 6 10 mph 1018.9mb 47f 49f
1:18 5 8 mph 1018.7mb 47f 49f
1:12 6 8 mph 1018.6mb 47f 49f
1:06 6 9 mph 1018.6mb 47f 49f
1:00 6 11 mph 1018.4mb 47f 49f
12:54 5 9 mph 1018.3mb 47f 49f
12:48 7 10 mph 1018.3mb 47f 49f
12:36 5 8 mph 1018.2mb 47f 49f
12:30 3 6 mph 1018.2mb 47f 48f
12:24 5 8 mph 1018.3mb 47f 48f
12:18 3 5 mph 1018.2mb 47f 48f
12:12 5 8 mph 1018.2mb 47f 48f
12:06 3 6 mph 1018.2mb 47f 48f
12:00 6 7 mph 1018.2mb 47f 48f
11:54 5 8 mph 1018.1mb 47f 48f
11:48 5 8 mph 1018mb 47f 47f
11:36 6 9 mph 1017.7mb 47f 47f
11:30 5 9 mph 1017.7mb 47f 47f
11:24 6 9 mph 1017.4mb 47f 47f
11:18 5 9 mph 1017.3mb 47f 47f
11:12 6 9 mph 1017.2mb 47f 47f
11:06 7 10 mph 1017mb 47f 47f
11:00 7 11 mph 1016.6mb 47f 47f
10:54 7 9 mph 1016.6mb 47f 47f
10:48 5 9 mph 1016.5mb 47f 46f
10:36 6 10 mph 1016.4mb 47f 46f
10:30 6 8 mph 1016.5mb 47f 46f
10:24 6 9 mph 1016.5mb 47f 46f
10:18 6 8 mph 1016.5mb 47f 46f
10:12 7 11 mph 1016.5mb 47f 46f
10:06 7 11 mph 1016.4mb 47f 46f
10:00 7 14 mph 1016.2mb 47f 46f
9:54 6 9 mph 1016.1mb 47f 46f
9:48 6 9 mph 1016.1mb 47f 46f
9:36 5 7 mph 1015.9mb 47f 46f
9:30 3 8 mph 1015.7mb 47f 46f
9:24 3 7 mph 1015.5mb 47f 46f
9:18 5 8 mph 1015.3mb 47f 46f
9:12 7 9 mph 1015.2mb 47f 45f
9:06 5 11 mph 1015.3mb 47f 46f
9:00 3 9 mph 1015.2mb 47f 46f
8:54 7 10 mph 1015mb 47f 46f
8:48 7 10 mph 1014.9mb 47f 46f
8:36 6 8 mph - 47f 46f
8:30 5 8 mph - 47f 46f
8:24 3 6 mph - 47f 46f
8:18 2 6 mph - 47f 45f
8:12 3 7 mph - 47f 45f
8:06 3 8 mph - 47f 45f
8:00 2 6 mph - 47f 45f
7:54 3 7 mph - 47f 45f
7:48 5 6 mph - 47f 45f
7:36 5 7 mph 1013.8mb 47f 45f
7:30 5 7 mph 1013.7mb 47f 45f
7:24 3 8 mph 1013.7mb 47f 45f
7:18 5 6 mph 1013.7mb 47f 45f
7:12 5 6 mph 1013.7mb 47f 45f
7:06 3 6 mph 1013.6mb 47f 45f
7:00 5 7 mph 1013.6mb 47f 45f
6:54 3 5 mph 1013.5mb 47f 45f
6:48 3 5 mph 1013.4mb 47f 45f
6:36 5 7 mph 1013.3mb 47f 45f
6:30 6 7 mph 1013.2mb 47f 45f
6:24 6 7 mph 1013mb 47f 45f
6:18 2 3 mph 1013.1mb 47f 45f
6:12 1 5 mph 1013mb 47f 45f
6:06  -  6 mph 1012.8mb 47f 45f
6:00 2 3 mph 1012.7mb 47f 45f
5:54 2 3 mph 1012.7mb 47f 45f
5:48 1 2 mph 1012.8mb 47f 45f
5:36 2 5 mph 1012.5mb 47f 45f
5:30 2 3 mph 1012.5mb 47f 45f
5:24 3 5 mph 1012.4mb 47f 45f
5:18 3 6 mph 1012.3mb 47f 45f
5:12 3 5 mph 1012.2mb 47f 45f
5:06 5 6 mph 1012.1mb 47f 45f
5:00 6 7 mph 1011.9mb 47f 45f
4:54 6 7 mph 1011.9mb 47f 45f
4:48 5 7 mph 1011.9mb 47f 45f
4:36 6 7 mph 1011.8mb 47f 45f
4:30 6 7 mph 1011.7mb 47f 45f
4:24 5 6 mph 1011.8mb 47f 45f
4:18 3 5 mph 1011.7mb 47f 45f
4:12 2 3 mph 1011.7mb 47f 45f
4:06 2 3 mph 1011.6mb 47f 45f
4:00 2 5 mph 1011.5mb 47f 45f
3:54 2 3 mph 1011.4mb 47f 45f
3:48 2 3 mph 1011.3mb 47f 45f
3:36 5 6 mph 1011.1mb 47f 45f
3:30 5 6 mph 1011.1mb 47f 46f
3:24 6 7 mph 1011.1mb 47f 46f
3:18 6 7 mph 1011.1mb 47f 46f
3:12 5 7 mph 1011.1mb 47f 45f
3:06 3 6 mph 1011mb 47f 45f
3:00 1 2 mph 1011.1mb 47f 45f
2:54  -  2 mph 1011.1mb 47f 45f
2:48 1 2 mph 1011.1mb 47f 46f
2:36 2 5 mph 1011mb 47f 46f
2:30 2 3 mph 1010.9mb 47f 46f
2:24 2 3 mph 1011mb 47f 46f
2:18 3 5 mph 1010.9mb 47f 46f
2:12 2 5 mph 1010.9mb 47f 46f
2:06 3 5 mph 1010.8mb 47f 46f
2:00 3 5 mph 1010.7mb 47f 46f
1:54 3 5 mph 1010.6mb 47f 46f
1:48 2 5 mph 1010.6mb 47f 46f
1:36 3 5 mph 1010.5mb 47f 46f
1:30 2 3 mph 1010.4mb 47f 45f
1:24 2 3 mph 1010.4mb 47f 46f
1:18 3 5 mph 1010.4mb 47f 46f
1:12 2 5 mph 1010.3mb 47f 46f
1:06 3 5 mph 1010.2mb 47f 46f
1:00 3 5 mph 1010.1mb 47f 46f
12:54 3 6 mph 1010mb 47f 46f
12:48 2 5 mph 1010mb 47f 46f
12:36 2 5 mph 1009.9mb 47f 46f
12:30 3 6 mph 1009.9mb 47f 46f
12:24 3 5 mph 1009.9mb 47f 46f
12:18 3 5 mph 1009.8mb 47f 46f
12:12 3 6 mph 1009.7mb 47f 46f
12:06 3 5 mph 1009.6mb 47f 46f
12:00 3 6 mph 1009.5mb 47f 46f
dom 03/26 11:36 3 6 mph 1009.3mb 47f 46f
11:30 2 6 mph 1009.3mb 47f 46f
11:24 5 6 mph 1009.2mb 47f 46f
11:18 5 7 mph 1009.1mb 47f 46f
11:12 5 6 mph 1009.1mb 47f 46f
11:06 3 7 mph 1009.1mb 47f 46f
11:00 5 8 mph 1009mb 47f 46f
10:54 6 8 mph 1008.9mb 47f 46f
10:48 6 8 mph 1008.8mb 47f 46f
10:36 6 11 mph 1008.8mb 47f 46f
10:30 5 8 mph 1008.7mb 47f 46f
10:24 6 9 mph 1008.6mb 47f 46f
10:18 3 11 mph 1008.6mb 47f 46f
10:12 6 10 mph 1008.5mb 47f 46f
10:06 5 8 mph 1008.3mb 47f 46f
10:00 3 8 mph 1008.3mb 47f 46f
9:54 2 3 mph 1008.2mb 47f 46f
9:48 1 2 mph 1008.1mb 47f 46f
9:36 1 3 mph 1007.8mb 47f 46f
9:30 2 5 mph 1007.8mb 47f 46f
9:24 3 7 mph 1007.8mb 47f 46f
9:18 5 7 mph 1007.8mb 47f 46f
9:12 5 7 mph 1007.8mb 47f 46f
9:06 5 10 mph 1007.7mb 47f 46f
9:00 8 13 mph 1007.6mb 47f 46f
8:54 6 8 mph 1007.6mb 47f 46f
8:48 6 8 mph 1007.5mb 47f 46f
8:36 3 5 mph 1007.5mb 47f 46f
8:30 2 5 mph 1007.5mb 47f 46f
8:24 2 3 mph 1007.4mb 47f 46f
8:18 3 6 mph 1007.4mb 47f 46f
8:12 3 6 mph 1007.4mb 47f 46f
8:06 3 7 mph 1007.3mb 47f 46f
8:00 5 9 mph 1007.3mb 47f 46f
7:54 6 10 mph 1007.2mb 47f 46f
7:48 6 9 mph 1007.1mb 47f 46f
7:36 6 9 mph 1006.9mb 47f 46f
7:30 6 10 mph 1006.8mb 47f 46f
7:24 6 8 mph 1006.9mb 47f 46f
7:18 6 10 mph 1006.9mb 47f 46f
7:12 5 9 mph 1006.9mb 47f 46f
7:06 6 9 mph 1006.7mb 47f 46f
7:00 7 10 mph 1006.7mb 47f 46f
6:54 7 9 mph 1006.7mb 47f 46f
6:48 5 8 mph 1006.7mb 47f 46f
6:36 7 13 mph 1006.7mb 47f 46f
6:30 7 11 mph 1006.7mb 47f 46f
6:24 8 14 mph 1006.7mb 47f 46f
6:18 10 15 mph 1006.7mb 47f 46f
6:12 9 15 mph 1006.6mb 47f 46f
6:06 10 14 mph 1006.7mb 47f 46f
6:00 13 18 mph 1006.8mb 47f 46f
5:54 13 20 mph 1006.7mb 47f 46f
5:48 10 18 mph 1006.7mb 47f 46f
5:36 11 20 mph 1006.7mb 47f 47f
5:30 13 21 mph 1006.6mb 47f 47f
5:24 11 16 mph 1006.6mb 47f 47f
5:18 9 18 mph 1006.5mb 47f 47f
5:12 9 15 mph 1006.5mb 47f 47f
5:06 7 10 mph 1006.4mb 47f 47f
5:00 6 13 mph 1006.5mb 47f 47f
4:54 7 13 mph 1006.4mb 47f 47f
4:48 5 9 mph 1006.3mb 47f 47f
4:36 9 13 mph 1006.4mb 47f 47f
4:30 8 14 mph 1006.4mb 47f 47f
4:24 9 17 mph 1006.4mb 47f 47f
4:18 11 16 mph 1006.4mb 47f 47f
4:12 9 17 mph 1006.3mb 47f 47f
4:06 11 17 mph 1006.3mb 47f 48f
4:00 14 18 mph 1006.3mb 47f 48f
3:54 9 16 mph 1006.4mb 47f 48f
3:48 13 21 mph 1006.4mb 47f 48f
3:36 13 18 mph 1006.3mb 47f 48f
3:30 10 16 mph 1006.3mb 47f 48f
3:24 10 16 mph 1006.3mb 47f 48f
3:18 10 14 mph 1006.3mb 47f 47f
3:12 9 14 mph 1006.4mb 47f 47f
3:06 9 13 mph 1006.4mb 47f 47f
3:00 9 14 mph 1006.5mb 47f 47f
2:36 11 13 mph 1006.7mb 47f 47f
2:30 9 14 mph 1006.7mb 47f 47f
2:24 11 17 mph 1006.8mb 47f 47f
2:18 11 16 mph 1006.8mb 47f 46f
2:12 10 14 mph 1006.9mb 47f 46f
2:06 8 14 mph 1006.9mb 47f 46f
2:00 9 13 mph 1007mb 47f 46f
1:54 10 15 mph 1007mb 47f 46f
1:48 11 14 mph 1007.1mb 47f 46f
1:36 9 13 mph 1007.3mb 47f 46f
1:30 10 15 mph 1007.2mb 47f 46f
1:24 11 15 mph 1007.2mb 47f 46f
1:18 11 16 mph 1007.2mb 47f 45f
1:12 11 15 mph 1007.2mb 47f 45f
1:06 11 18 mph 1007.3mb 47f 45f
1:00 14 18 mph 1007.3mb 47f 45f
12:54 14 18 mph 1007.4mb 47f 45f
12:48 13 20 mph 1007.4mb 47f 45f
12:36 14 21 mph 1007.4mb 47f 45f
12:30 16 21 mph 1007.4mb 47f 45f
12:24 16 21 mph 1007.5mb 47f 44f
12:18 16 22 mph 1007.6mb 47f 44f
12:12 16 22 mph 1007.7mb 47f 44f
12:06 16 21 mph 1007.9mb 47f 44f
12:00 15 22 mph 1008mb 47f 44f
11:54 17 22 mph 1008mb 47f 44f
11:48 16 21 mph 1008mb 47f 44f
11:36 17 24 mph 1008mb 47f 44f
11:30 18 24 mph 1008.2mb 47f 44f
11:24 16 22 mph 1008.2mb 47f 44f
11:18 14 22 mph 1008.3mb 47f 44f
11:12 16 21 mph 1008.4mb 47f 44f
11:06 15 22 mph 1008.5mb 47f 44f
11:00 17 24 mph 1008.6mb 47f 44f
10:54 16 25 mph 1008.7mb 47f 44f
10:48 14 22 mph 1008.7mb 47f 44f
10:36 18 23 mph 1008.7mb 47f 44f
10:30 17 23 mph 1008.8mb 47f 44f
10:24 17 22 mph 1008.9mb 47f 44f
10:18 17 22 mph 1009mb 47f 44f
10:12 16 21 mph 1009mb 47f 44f
10:06 14 17 mph 1009mb 46f 44f
10:00 13 16 mph 1009.2mb 46f 45f
9:54 13 17 mph 1009.1mb 46f 45f
9:48 13 18 mph 1009.1mb 46f 45f
9:36 15 17 mph 1009.2mb 47f 45f
9:30 11 16 mph 1009.2mb 47f 45f
9:24 13 15 mph 1009.2mb 47f 45f
9:18 10 14 mph 1009.2mb 47f 45f
9:12 10 13 mph 1009.2mb 47f 45f
9:06 9 14 mph 1009.3mb 47f 45f
9:00 10 17 mph 1009.4mb 47f 45f
8:54 10 18 mph 1009.5mb 47f 46f
8:48 9 15 mph 1009.5mb 47f 46f
8:36 7 11 mph 1009.5mb 47f 46f
8:30 8 13 mph 1009.6mb 47f 46f
8:24 9 11 mph 1009.7mb 47f 46f
8:18 9 11 mph 1009.8mb 47f 46f
8:12 9 11 mph 1009.8mb 47f 46f
8:06 9 11 mph 1009.8mb 47f 46f
8:00 8 10 mph 1009.9mb 47f 46f
7:54 6 9 mph 1009.9mb 47f 46f
7:48 7 10 mph 1009.9mb 47f 46f
7:36 6 10 mph 1009.9mb 47f 46f
7:30 6 9 mph 1009.9mb 47f 45f
7:24 6 8 mph 1010mb 47f 45f
7:18 5 9 mph 1010mb 47f 45f
7:12 7 9 mph 1010.1mb 47f 45f
7:06 6 8 mph 1010.1mb 47f 45f
7:00 6 8 mph 1010.1mb 47f 45f
6:54 6 8 mph 1010.2mb 47f 45f
6:48 7 10 mph 1010.1mb 47f 45f
6:36 7 8 mph 1010.2mb 47f 44f
6:30 7 9 mph 1010.3mb 47f 45f
6:24 7 9 mph 1010.4mb 47f 44f
6:18 7 8 mph 1010.5mb 47f 44f
6:12 6 9 mph 1010.6mb 47f 44f
6:06 6 10 mph 1010.8mb 47f 44f
6:00 7 10 mph 1010.9mb 46f 44f
5:54 9 10 mph 1011.1mb 46f 44f
5:48 7 9 mph 1011.1mb 46f 44f
5:36 7 9 mph 1011.1mb 46f 44f
5:30 7 9 mph 1011.2mb 46f 44f
5:24 7 8 mph 1011.4mb 46f 44f
5:18 7 8 mph 1011.5mb 46f 44f
5:12 8 9 mph 1011.7mb 46f 44f
5:06 7 10 mph 1011.8mb 46f 44f
5:00 8 10 mph 1011.9mb 46f 44f
4:36 9 11 mph 1012.3mb 46f 44f
4:30 8 10 mph 1012.4mb 46f 44f
4:24 8 9 mph 1012.5mb 46f 44f
4:18 7 8 mph 1012.6mb 46f 44f
4:12 6
mph
1012.9mb 46f 44f
4:06 5 6 mph 1013mb 46f 44f
4:00 3 5 mph 1013.1mb 46f 44f
3:54 5 7 mph 1013.2mb 46f 44f
3:48 5 7 mph 1013.3mb 46f 44f
3:36 6 7 mph 1013.5mb 46f 44f
3:30 6 7 mph 1013.6mb 46f 44f
3:24 6 7 mph 1013.8mb 46f 44f
3:18 7 9 mph 1013.8mb 46f 44f
3:12 8 9 mph 1013.8mb 46f 44f
3:06 7 10 mph 1014mb 46f 44f
3:00 7 8 mph 1014.1mb 46f 44f
2:54 6 7 mph 1014.2mb 46f 44f
2:48 6 7 mph 1014.3mb 46f 44f
2:36 5 8 mph 1014.5mb 46f 44f
2:30 7 8 mph 1014.6mb 46f 44f
2:24 6 8 mph 1014.7mb 46f 44f
2:18 6 7 mph 1014.8mb 46f 44f
2:12 6
mph
1014.9mb 46f 44f
2:06 6 7 mph 1015.1mb 47f 44f
2:00 6 8 mph 1015.2mb 47f 44f
1:54 6 7 mph 1015.2mb 47f 44f
1:48 6
mph
1015.2mb 47f 44f
1:36 2 5 mph 1015.3mb 47f 43f
1:30 5 6 mph 1015.3mb 47f 43f
1:24 6 7 mph 1015.4mb 47f 43f
1:18 6 7 mph 1015.5mb 47f 43f
1:12 6 7 mph 1015.5mb 47f 44f
1:06 6
mph
1015.6mb 47f 44f
1:00 5 6 mph 1015.6mb 47f 44f
12:54 5
mph
1015.7mb 47f 44f
12:48 5
mph
1015.8mb 47f 44f
12:36 3 6 mph 1016mb 47f 44f
12:30 6
mph
- - 44f
12:24 1 2 mph - - 44f
12:18  -  1 mph - - 44f
12:12  -  1 mph 1016.2mb 47f 44f
12:06  -  1 mph 1016.3mb 47f 44f
12:00  -  mph 1016.3mb 47f 44f
sáb 03/25 11:54  -  mph 1016.4mb 47f 44f
11:48  -  mph 1016.5mb 47f 44f
11:36  -  1 mph 1016.5mb 47f 44f
11:30  -  2 mph 1016.5mb 47f 44f
11:24 1
mph
1016.5mb 47f 44f
11:18  -  1 mph 1016.5mb 47f 44f
11:12  -  mph 1016.6mb 47f 44f
11:06  -  mph 1016.6mb 47f 44f
11:00  -  1 mph 1016.6mb 47f 44f
10:54  -  1 mph 1016.6mb 47f 44f
10:48  -  1 mph 1016.7mb 47f 44f
10:36 2
mph
1016.9mb 47f 45f
10:30 1 2 mph 1016.9mb 47f 45f
10:24 1 2 mph 1016.9mb 47f 45f
10:18  -  2 mph 1017mb 47f 45f
10:12 2 5 mph 1017.1mb 47f 45f
10:06  -  3 mph 1017.1mb 47f 45f
10:00  -  3 mph 1017.2mb 47f 45f
9:54  -  2 mph 1017.3mb 47f 44f
9:48  -  1 mph 1017.3mb 47f 44f
9:36  -  1 mph 1017.3mb 47f 44f
9:30  -  1 mph 1017.3mb 47f 44f
9:24 1
mph
1017.3mb 47f 45f
9:18  -  1 mph 1017.4mb 47f 45f
9:12  -  mph 1017.5mb 47f 45f
9:06  -  1 mph 1017.6mb 47f 45f
9:00  -  mph 1017.7mb 47f 45f
8:54  -  mph 1017.7mb 47f 45f
8:48  -  mph 1017.7mb 47f 45f
8:36  -  mph 1017.6mb 47f 45f
8:30  -  mph 1017.6mb 47f 45f
8:24  -  1 mph 1017.7mb 47f 45f
8:18 2 3 mph 1017.8mb 47f 45f
8:12 2
mph
1017.9mb 47f 46f
8:06 1 2 mph 1017.9mb 47f 46f
8:00  -  1 mph 1017.9mb 47f 45f
7:54  -  1 mph 1018mb 47f 45f
7:48  -  1 mph 1018mb 47f 46f
7:36 3 5 mph 1018mb 47f 46f
7:30 5 6 mph 1018mb 47f 46f
7:24 5
mph
1018mb 47f 46f
7:18 3 6 mph 1018mb 47f 46f
7:12 2 7 mph 1018.1mb 47f 46f
7:06 6 8 mph 1018.2mb 47f 46f
7:00 6 9 mph 1018.2mb 47f 46f
6:54 8 13 mph 1018.2mb 47f 46f
6:48 9 13 mph 1018.2mb 47f 46f
6:36 10 16 mph 1018.2mb 47f 47f
6:30 11 15 mph 1018.3mb 47f 47f
6:24 11 17 mph 1018.3mb 47f 47f
6:18 11 14 mph 1018.3mb 47f 47f
6:12 9 14 mph 1018.3mb 47f 47f
6:06 10 13 mph 1018.4mb 47f 47f
6:00 8 13 mph 1018.4mb 47f 47f
5:54 10 14 mph 1018.4mb 47f 47f
5:48 9 14 mph 1018.4mb 47f 47f
5:36 13 15 mph 1018.5mb 47f 47f
5:30 13 15 mph 1018.6mb 47f 47f
5:24 11 15 mph 1018.6mb 47f 47f
5:18 11 15 mph 1018.6mb 47f 47f
5:12 10 16 mph 1018.7mb 47f 47f
5:06 9 13 mph 1018.7mb 47f 47f
5:00 8 11 mph 1018.8mb 47f 47f
4:54 10 17 mph 1018.8mb 47f 47f
4:48 9 13 mph 1018.9mb 47f 47f
4:36 10 13 mph 1019mb 47f 47f
4:30 13 16 mph 1019mb 47f 47f
4:24 11 15 mph 1019mb 47f 47f
4:18 13 16 mph 1019mb 47f 47f
4:12 10 16 mph 1019mb 47f 48f
4:06 13 15 mph 1019mb 47f 48f
4:00 14 17 mph 1019mb 47f 48f
3:54 6 8 mph 1019mb 47f 49f
3:48 9 14 mph 1019mb 47f 48f
3:36 10 13 mph 1019mb 47f 48f
3:30 7 14 mph 1019mb 47f 48f
3:24 8 10 mph 1019mb 47f 48f
3:18 7 10 mph 1019mb 46f 48f
3:12 6 8 mph 1019mb 46f 48f
3:06 6 8 mph 1019mb 46f 48f
3:00 5 7 mph 1019.1mb 46f 48f
2:54 7 10 mph 1019.2mb 46f 48f
2:48 8 11 mph 1019.2mb 46f 48f
2:36 9 14 mph 1019.2mb 47f 48f
2:30 3 5 mph 1019.2mb 47f 49f
2:24 5 11 mph 1019.2mb 47f 48f
2:18 9 13 mph 1019.3mb 47f 48f
2:12 9 13 mph 1019.4mb 47f 48f
2:06 10 13 mph 1019.4mb 47f 48f
2:00 7 10 mph 1019.4mb 47f 48f
1:54 6 9 mph 1019.4mb 47f 48f
1:48 3 13 mph 1019.4mb 47f 48f
1:36 7 13 mph 1019.4mb 47f 48f
1:30 8 11 mph 1019.3mb 47f 48f
1:24 7 10 mph 1019.4mb 47f 48f
1:18 9 11 mph 1019.4mb 47f 47f
1:12 5 11 mph 1019.4mb 47f 47f
1:06 9 11 mph 1019.4mb 47f 47f
1:00 11 14 mph 1019.4mb 47f 47f
12:54 5 17 mph 1019.4mb 47f 48f
12:48 8 15 mph 1019.4mb 47f 48f
12:36 9 16 mph 1019.5mb 47f 47f
12:30 8 15 mph 1019.5mb 47f 47f
12:24 10 15 mph 1019.5mb 47f 47f
12:18 7 15 mph 1019.5mb 46f 48f
12:12 9 16 mph 1019.5mb 46f 47f
12:06 10 14 mph 1019.7mb 46f 47f
12:00 9 13 mph 1019.7mb 46f 47f
11:54 10 13 mph 1019.8mb 46f 47f
11:48 8 13 mph 1019.8mb 46f 47f
11:36 10 13 mph 1019.7mb 46f 46f
11:30 7 14 mph 1019.7mb 46f 47f
11:24 11 17 mph 1019.6mb 46f 47f
11:18 3 6 mph 1019.6mb 46f 46f
11:12 2 3 mph 1019.6mb 46f 46f